Regional Weather Roundup
Issued by NWS

Home | Current Version | Previous Version | Text Only | Print | Product List | Glossary Off
Versions: 1 2 3 4 5 6 7 8 9 10 11 12 13 14 15 16 17 18 19 20 21 22 23 24 25 26 27 28 29 30 31 32 33 34 35 36 37 38 39 40 41 42 43 44 45 46 47 48 49 50

000
ASUS45 KTFX 230110
RWRMT
MONTANA REGIONAL WEATHER ROUNDUP
NATIONAL WEATHER SERVICE GREAT FALLS MT
700 PM MDT SAT JUL 22 2017

NOTE: "FAIR" INDICATES FEW OR NO CLOUDS BELOW 12000 FEET WITH NO
SIGNIFICANT WEATHER AND/OR OBSTRUCTIONS TO VISIBILITY.

MTZ001>007-043-230200-
WEST OF THE DIVIDE

CITY           SKY/WX    TMP DP  RH WIND       PRES   REMARKS
KALISPELL      SUNNY     85  43  22 S13       30.06F
MISSOULA       SUNNY     87  41  19 S6        30.08S
BUTTE          SUNNY     83  32  16 NW12      30.21F
MULLAN PASS    SUNNY     71  42  35 VRB3      30.30F
ANACONDA         N/A     79  46  31 N9        30.18S
DEER LODGE       N/A     81  39  22 NW15      30.18S
EUREKA           N/A     90  46  22 MISG      30.04S
HAMILTON         N/A     84  45  24 NW5       30.11F
LIBBY            N/A     88  45  22 W6        30.05S
PLAINS           N/A     89  48  24 W6        30.06F
RONAN            N/A     82  55  39 CALM      30.13F
$$

MTZ008-052>055-230200-
SOUTHWEST MONTANA

CITY           SKY/WX    TMP DP  RH WIND       PRES   REMARKS
BOZEMAN        SUNNY     87  29  12 E5        30.13F
DILLON         SUNNY     86  37  17 NE8       30.15F
W YELLOWSTONE  SUNNY     81  28  15 W6        30.27S
ENNIS          SUNNY     86  25  10 VRB6G13   30.22S
THREE FORKS      N/A     88  31  13 NE3       30.09S
TWIN BRIDGES     N/A     86  33  15 CALM      30.12F
$$

MTZ009-010-012-014-046-048-049-054-230200-
EAST SLOPES AND CENTRAL MONTANA

CITY           SKY/WX    TMP DP  RH WIND       PRES   REMARKS
CUT BANK       SUNNY     85  40  20 NW9       30.07S
GREAT FALLS    SUNNY     88  36  15 N7        30.07S
MALMSTROM AFB  SUNNY     87  37  17 W5        30.06F
HELENA         SUNNY     90  38  16 W9        30.08F
CHOTEAU          N/A     86  39  19 VRB6      30.10S
CONRAD           N/A     85  44  23 W15       30.09F
$$

MTZ011-013-016-021-045-047-050-051-230200-
NORTH CENTRAL MONTANA

CITY           SKY/WX    TMP DP  RH WIND       PRES   REMARKS
HAVRE          SUNNY     89  39  17 N8        29.99F
LEWISTOWN      SUNNY     83  35  18 NW7       30.12S
N BAR RANCH      N/A     82  34  17 NW10      30.15S
CHINOOK          N/A     88  39  18 CALM      30.00S
$$

MTZ017>020-022>027-061-062-230200-
NORTHEAST MONTANA

CITY           SKY/WX    TMP DP  RH WIND       PRES   REMARKS
GLASGOW        SUNNY     85  44  23 MISG      30.01S
JORDAN           N/A     87  38  17 NE3       30.02S
SIDNEY         SUNNY     83  47  28 N14G21    30.00S
WOLF POINT     SUNNY     86  44  23 N10       30.01S
MALTA          SUNNY     86  43  22 NW6       30.00F
PLENTYWOOD       N/A     79  48  34 NW12      30.02S
POPLAR           N/A     82  45  26 N12       30.01S
SCOBEY           N/A     77  46  33 N13       30.04R
$$

MTZ028>42-056>058-230200-
SOUTHCENTRAL AND SOUTHEAST MONTANA

CITY           SKY/WX    TMP DP  RH WIND       PRES   REMARKS
BAKER          SUNNY     83  39  21 N15       30.06S
BILLINGS       PTSUNNY   89  28  11 E7        30.06S
LIVINGSTON     SUNNY     88  24  10 N10       30.13S
MILES CITY     SUNNY     88  35  15 N13       30.02S
BIG TIMBER     SUNNY     86  25  10 W14       30.14S
FORSYTH          N/A     90  34  13 CALM      30.02S
LAUREL           N/A     88  36  15 NE1       30.05F
$$

REGIONAL REPORTS...DAKOTAS

CITY           SKY/WX    TMP DP  RH WIND       PRES   REMARKS
WILLISTON      SUNNY     83  46  27 NW13      30.00S
MINOT          SUNNY     75  54  47 N13       29.97R
DICKINSON      SUNNY     81  45  28 NW16G22   30.01R
BEACH            N/A     81  39  22 NW14G21   30.08R
CROSBY           N/A     75  54  46 N9        30.01S
TIOGA            N/A     75  48  38 N13G18    30.03R
WATFORD CITY     N/A     81  46  30 N9G16     30.00R
BISMARCK       MOSUNNY   81  51  35 N13       29.96R
GRAND FORKS    CLOUDY    74  59  59 NW15      29.86R
FARGO          SUNNY     79  60  52 NW9       29.85S
BUFFALO SD       N/A     85  42  22 N13G22    29.99R
RAPID CITY     SUNNY     88  40  18 NE9       30.04S
$$

REGIONAL REPORTS...WYOMING/IDAHO/WASHINGTON

CITY           SKY/WX    TMP DP  RH WIND       PRES   REMARKS
GILLETTE       SUNNY     88  30  12 N6        30.11S
SHERIDAN       SUNNY     88  33  14 W3        30.09F
BUFFALO WY     SUNNY     83  35  18 N7        30.17S
YELLOWSTONE LA   N/A     76  22  13 VRB3      30.38S
IDAHO FALLS    SUNNY     86  47  25 CALM      30.13F
BOISE          SUNNY     92  33  12 W14       30.01F
SPOKANE        MOSUNNY   87  45  23 SW10      30.08F
$$

REGIONAL REPORTS...ALBERTA

CITY           SKY/WX    TMP DP  RH WIND       PRES   REMARKS
EDMONTON       MOSUNNY   77  54  44 W2        29.94F
CALGARY        MOSUNNY   81  45  28 W16G24    30.02R
LETHBRIDGE     PTSUNNY   88  46  23 W20G25    29.99S
MEDICINE HAT   MOSUNNY   84  45  24 SW3       29.97F
CARDSTON         N/A     84  45  24 NW5         N/A
MILK RIVER       N/A     86  46  25 W12         N/A
$$

REGIONAL REPORTS...SASKATCHEWAN

CITY           SKY/WX    TMP DP  RH WIND       PRES   REMARKS
SWIFT CURRENT  SUNNY     75  48  38 N6        30.03F
REGINA         MOSUNNY   75  52  43 N8        30.01R
SASKATOON      MOSUNNY   73  57  56 NW5       30.00S
CYPRESS HILLS    N/A     73  43  33 NE5         N/A
VAL MARIE        N/A     81  43  26 NE6         N/A
ROCKGLEN         N/A     73  48  40 N8          N/A
ASSINIBOIA       N/A     77  52  41 W7          N/A
$$



USA.gov is the U.S. government's official web portal to all federal, state and local government web resources and services.